Forecast Directory
U.S. Alerts
El Dorado Weather Logo
U.S. Radar Loop Conditions Map

U.S. Color Satellite North America Color Infrared Animated Satellite Loop

Interactive Wx Map Live U.S. Google Map Radar Thumbnail Image

US Precipitation 1 day, 24 hour precipitation map

US Temperatures US Conditions Map

US Climate Data US Conditions Map


NOAA NWS Hourly Roundups by Site
Regional Weather Roundup for Sacramento, CA
Select Site:  

000
ASUS46 KSTO 041915
RWRCA

NORTHERN AND CENTRAL CA REGIONAL WEATHER ROUNDUP
NATIONAL WEATHER SERVICE SACRAMENTO CA
1200 PM PDT WED AUG 04 2021

NOTE: FAIR INDICATES FEW OR NO CLOUDS BELOW 12,000 FEET WITH NO
SIGNIFICANT WEATHER AND/OR OBSTRUCTIONS TO VISIBILITY.

CAZ001-003-042000-
NORTHWEST AREA

CITY           SKY/WX    TMP DP  RH WIND       PRES   REMARKS
CRESCENT CITY  CLOUDY    54  52  93 S8        29.97R
UKIAH          SUNNY     86  44  23 VRB3      29.92F
$$

CAZ006-505>513-042000-
BAY AREA

CITY           SKY/WX    TMP DP  RH WIND       PRES   REMARKS
SANTA ROSA     SUNNY     65  54  67 VRB7      29.99S
SAN RAFAEL     N/A       71  MM  MM MISG
NAPA           SUNNY     67  55  65 SW9       29.98S
CONCORD        SUNNY     76  52  43 S9        29.95S
OAKLAND CITY   N/A       59  MM  MM MISG
OAKLAND        PTSUNNY   62  54  74 W10       30.02S
SAN FRAN CITY  N/A       59  MM  81 MISG
SAN FRAN ARPT  MOSUNNY   64  53  67 W16       30.00F
LIVERMORE      SUNNY     72  51  47 NW12      29.97S
HAYWARD        MOSUNNY   64  54  69 W7        30.00F
REDWOOD CITY   N/A       69  MM  67 MISG
MOFFETT ARPT   SUNNY     64  55  72 N10       30.00S
SAN JOSE ARPT  MOSUNNY   70  53  54 N8        30.00R
$$
CAZ034-037-514>518-042000-
CENTRAL COAST

CITY           SKY/WX    TMP DP  RH WIND       PRES   REMARKS
WATSONVILLE    PTSUNNY   65  56  72 SW10      30.01S
SALINAS        PTSUNNY   64  54  69 W13       30.01R
MONTEREY       CLOUDY    62  53  72 NW7       30.03R
SAN LUIS OBISP SUNNY     72  55  55 NW15      29.97S
SANTA MARIA    MOSUNNY   65  55  70 NW12      29.99S
$$
CAZ015-016-042000-
NORTHERN SACRAMENTO VALLEY

CITY           SKY/WX    TMP DP  RH WIND       PRES   REMARKS
REDDING        SUNNY     95  38  13 S7        29.88F HX  90
RED BLUFF      SUNNY     93  40  15 SE6       29.89F
OROVILLE       SUNNY     87  50  27 W5        29.92F
$$
CAZ016>018-042000-
SOUTHERN SACRAMENTO VALLEY

CITY           SKY/WX    TMP DP  RH WIND       PRES   REMARKS
AUBURN         SUNNY     93  37  14 VRB6      29.97F
BEALE AFB      MOSUNNY   87  53  30 S6        29.88F
LINCOLN        FAIR      86  50  28 SW6       29.90F
MARYSVILLE     SUNNY     88  50  27 S8        29.90F
SAC INTL ARPT  SUNNY     81  53  37 SE9       29.90F
MATHER AIRPORT SUNNY     82  52  34 VRB6      29.90F
DOWNTOWN SAC   N/A       84  MM  MM MISG
SAC EXEC ARPT  SUNNY     80  55  42 S8        29.91F
VACAVILLE      SUNNY     85  52  32 VRB6      29.92S
TRAVIS AFB     SUNNY     74  51  43 SW24      29.91F
$$
CAZ019>021-042000-
SAN JOAQUIN VALLEY

CITY           SKY/WX    TMP DP  RH WIND       PRES   REMARKS
STOCKTON       SUNNY     83  50  31 NW7       29.91F
MODESTO        SUNNY     85  47  26 NW8       29.90F
MERCED         SUNNY     93  48  21 VRB7      29.89F
LEMOORE        SUNNY     96  40  14 NW7       29.89F HX  92
FRESNO         MOSUNNY   95  49  20 W3        29.88F HX  92
HANFORD        SUNNY     95  42  16 NW9       29.89F HX  91
PORTERVILLE    SUNNY     96  49  20 NW6       29.90F HX  93
BAKERSFIELD    SUNNY     94  52  24 VRB3      29.89F HX  91
$$
CAZ011-012-071-042000-
NORTHERN MOUNTAINS

CITY           SKY/WX    TMP DP  RH WIND       PRES   REMARKS
YREKA          CLOUDY    88  41  19 N3        30.02F HAZE
MOUNT SHASTA   CLOUDY    90  39  16 CALM      30.06F HAZE
ALTURAS        SUNNY     88  28  11 VRB3      30.11F
$$
CAZ011-012-071-042000-
SIERRA NEVADA MTNS

CITY           SKY/WX    TMP DP  RH WIND       PRES   REMARKS
BLUE CANYON    SUNNY     83  32  16 S7        30.25R
TRUCKEE        SUNNY     88  25  10 SW13G26   30.26S
TAHOE VLY ARPT SUNNY     84  27  12 MISG      30.27S
$$


 

View Past Reports for Sacramento, CA.

Products Courtesy of NOAA-NWS
NWS Information Parsing Script by Ken True at Saratoga Weather - Script by SE Lincoln Weather.



Contact Us | Mobile
Never base any life decisions on weather information from this site or anywhere over the Internet.
Site is dedicated to our Lord & Savior Jesus Christ | Random Quotes of Jesus

Copyright © 2021 El Dorado Weather, Inc. | Site Designed By:  El Dorado Weather